Simultaneous Nadir Overpasses (SNOs) Predictions

Prediction of SNOs between GOES-15 and TERRA Satellite Orbit:

Table of predicted SNOs for the next 14.0 days since TLE Epoch: 12/31/2011
Index Date Time (GOES-15) GOES-15 Lat,Lon TERRA Lat,Lon Distance(km) Time Diff (sec)
1 12/31/2011 19:12:42 -0.04,-134.75 -0.80,-131.22 402.31 80
2 01/01/2012 07:36:45 0.03,-134.81 -0.31,-136.41 181.99 80
3 01/03/2012 07:21:55 0.03,-134.81 0.35,-133.46 155.03 80
4 01/03/2012 19:45:49 -0.02,-134.76 0.78,-138.61 436.47 80
5 01/05/2012 07:09:43 0.03,-134.81 0.96,-130.49 491.34 80
6 01/05/2012 19:33:37 -0.03,-134.76 0.16,-135.65 100.31 80
7 01/07/2012 19:18:45 -0.03,-134.75 -0.47,-132.69 235.25 80
8 01/08/2012 07:42:49 0.02,-134.80 -0.63,-137.88 349.67 80
9 01/10/2012 07:27:57 0.02,-134.78 0.02,-134.92 14.87 80
10 01/12/2012 07:15:44 0.02,-134.76 0.61,-131.95 320.02 80
11 01/12/2012 19:39:39 -0.01,-134.71 0.50,-137.10 272.06 80




NCC Satellite Simultaneous Nadir Overpasses (SNOs) Prediction Service
